Regional Weather Roundup
Issued by NWS

Home | Current Version | Previous Version | Text Only | Print | Product List | Glossary On
Versions: 1 2 3 4 5 6 7 8 9 10 11 12 13 14 15 16 17 18 19 20 21 22 23 24 25 26 27 28 29 30 31 32 33 34 35 36 37 38 39 40 41 42 43 44 45 46 47 48 49 50
000
ASUS43 KMPX 242210
RWRMN
WEATHER ROUNDUP FOR MINNESOTA
NATIONAL WEATHER SERVICE TWIN CITIES/CHANHASSEN MN
400 PM CST FRI NOV 24 2017


NOTE: "FAIR" INDICATES FEW OR NO CLOUDS BELOW 12,000 FEET WITH NO
SIGNIFICANT WEATHER AND/OR OBSTRUCTIONS TO VISIBILITY. N/A MEANS
CURRENT SKY AND/OR WEATHER CONDITIONS ARE NOT AVAILABLE.

MNZ060>063-068>070-242300-
   Twin Cities Metro

CITY           SKY/WX    TMP DP  RH WIND       PRES   REMARKS
TWIN CITIES    CLOUDY    53  46  77 NW17G25   29.45R
ST PAUL        CLOUDY    53  45  74 NW17G30   29.46R
CRYSTAL        CLOUDY    51  40  65 NW14G24   29.47R
BLAINE         MOCLDY    52  45  76 NW15G23   29.46R
LAKEVILLE      DRIZZLE   52  45  76 W14       29.45R
EDEN PRAIRIE   MOCLDY    53  44  71 NW16G23   29.46R
SOUTH ST PAUL  CLOUDY    55  44  68 NW18      29.43R
LAKE ELMO      CLOUDY    52  46  82 NW14G24   29.46R
$$
MNZ001>005-007-008-013>017-022>024-027-028-242300-
   Northwest Minnesota

CITY           SKY/WX    TMP DP  RH WIND       PRES   REMARKS
BEMIDJI        CLEAR     39  34  81 W14       29.48R
HALLOCK        CLEAR     39  36  87 NW12      29.51R
ROSEAU         CLOUDY    39  34  81 NW14G20   29.47R
WARROAD        MOCLDY    39  30  70 W15G24    29.46R
THIEF RVR FALL CLEAR     39  34  82 W12       29.53R
CROOKSTON      CLEAR     43  36  75 NW12      29.55R
FOSSTON        CLEAR     39  34  81 W13G20    29.52R
DETROIT LAKES  CLEAR     43  36  75 NW16      29.56R
MOORHEAD       CLEAR     46  34  61 NW20      29.59R
PARK RAPIDS    PTCLDY    42  34  73 NW18G29   29.50R
MAHNOMEN       FAIR      41  35  80 W13       29.54R
$$
MNZ006-009>011-018-025>026-242300-
   North Central Minnesota

CITY           SKY/WX    TMP DP  RH WIND       PRES   REMARKS
BAUDETTE       CLOUDY    39  31  72 NW16      29.42R
FLAG ISLAND    CLOUDY    37  28  70 NW17      29.42R
INTL FALLS     CLOUDY    39  31  72 W8        29.40R
WASKISH        PTCLDY    37  34  87 W10       29.45R
BIG FORK       CLOUDY    41  36  81 W6        29.42R
LONGVILLE      CLEAR     43  36  75 W12       29.46R
GRAND RAPIDS   MOCLDY    41  37  86 NW13      29.45R
CRANE LAKE     CLOUDY    37  32  81 N5        29.39R
ORR            CLOUDY    37  30  75 NW8       29.37R
COOK           MOCLDY    39  34  81 W6        29.39R
WALKER         FAIR      41  34  76 W16G25    29.48R
$$
MNZ012-019>021-037-242300-
   Northeast Minnesota

CITY           SKY/WX    TMP DP  RH WIND       PRES   REMARKS
DULUTH         CLOUDY    40  38  93 NW13      29.39R
ELY            PTCLDY    37  34  87 W7        29.35R
HIBBING        CLOUDY    39  36  89 W6        29.39R
EVELETH        MOCLDY    37  32  81 W8G16     29.39R
DULUTH HARBOR  CLOUDY    43  39  87 W10       29.41R
TWO HARBORS    CLOUDY    45  39  81 W6        29.34R
SILVER BAY     CLOUDY    43  37  81 W3        29.33R
GRAND MARAIS     N/A     43  39  86 W6        29.30R
G MARAIS ARPRT CLOUDY    37  30  75 W8        29.28R
$$
MNZ029>031-032-039>041-046>048-054>057-064-242300-
   West Central Minnesota

CITY           SKY/WX    TMP DP  RH WIND       PRES   REMARKS
FERGUS FALLS   CLEAR     46  37  71 NW16G22   29.59R
WHEATON        CLEAR     50  34  53 W21G29    29.63R
MORRIS           N/A     48  39  71 NW15      29.58R VSB 1
ALEXANDRIA     CLEAR     46  39  76 NW18G26   29.56R
ELBOW LAKE     FAIR      46  37  71 NW20G26   29.59R HAZE
WADENA         CLEAR     43  36  75 NW14G26   29.53R
GLENWOOD       CLEAR     46  39  76 W16G24    29.56R
APPLETON       CLEAR     52  37  58 W13G20    29.60R
BENSON         CLEAR     48  39  71 NW14      29.59R
ORTONVILLE     CLEAR     52  36  54 NW15G21   29.61R
MADISON        CLEAR     54  37  54 NW18      29.61R
WILLMAR        FAIR      48  41  76 NW16G26   29.58R
$$
MNZ033>034-036-042>043-049>051-058-059-242300-
   Central Minnesota

CITY           SKY/WX    TMP DP  RH WIND       PRES   REMARKS
ST CLOUD       CLEAR     48  40  73 NW17G24   29.49R
SAUK CENTRE    FAIR      45  37  73 NW13G20   29.53R
PAYNESVILLE    CLEAR     48  39  72 NW15G22   29.54R
AITKIN         PTCLDY    43  37  81 W6        29.44R
PINE RIVER     CLEAR     43  36  75 W9G17     29.52R
BRAINERD       CLEAR     46  37  71 W10       29.48R
STAPLES        CLEAR     45  36  70 NW14G21   29.51R
LONG PRAIRIE   FAIR      45  36  70 W10       29.53R
LITTLE FALLS   CLEAR     46  30  53 NW10G23   29.50R
LITCHFIELD     CLEAR     50  41  71 NW16G25   29.54R
BUFFALO        MOCLDY    50  39  66 NW15G21   29.50R
MAPLE LAKE     PTCLDY    50  41  70 NW12      29.51R
HUTCHINSON     CLEAR     51  41  69 NW16G28   29.54R
$$
MNZ037-044-045-052-053-242300-
   East Central Minnesota

CITY           SKY/WX    TMP DP  RH WIND       PRES   REMARKS
PRINCETON      PTCLDY    50  41  71 W13G20    29.48R
MORA           MOCLDY    45  37  76 NW13      29.47R
CAMBRIDGE      CLOUDY    52  39  62 NW12G20   29.47R
RUSH CITY      CLOUDY    47  41  80 NW7       29.45R
MOOSE LAKE     PTCLDY    43  37  81 W10       29.42R
HINCKLEY       FAIR      46  41  81 NW8       29.45R
CLOQUET        CLOUDY    41  37  87 W9        29.41R
MCGREGOR       PTCLDY    43  37  81 W8        29.45R
$$
MNZ071>073-080-081-089-090-097-098-242300-
   Southwest Minnesota

CITY           SKY/WX    TMP DP  RH WIND       PRES   REMARKS
MONTEVIDEO     CLEAR     52  39  62 N12G21    29.59R
GRANITE FALLS  CLEAR     51  41  68 NW22G30   29.62R
CANBY          CLEAR     53  37  55 W17G28    29.64R
MARSHALL       CLEAR     52  38  58 NW20G28   29.63R
REDWOOD FALLS  CLEAR     51  39  63 NW24G35   29.57R
OLIVIA         CLEAR     50  39  66 NW28G35   29.57R
PIPESTONE      CLEAR     50  37  62 N25G33    29.65R
WINDOM           N/A     52  36  54 NW26G36   29.58R
WORTHINGTON    MOCLDY    54  39  57 NW35G41   29.61R
JACKSON        MOCLDY    54  41  62 NW33G44   29.57R
SLAYTON        CLEAR     51  37  59 NW24G32   29.61R
$$
MNZ065>067-074>077-082>085-091>093-242300-
   South Central Minnesota

CITY           SKY/WX    TMP DP  RH WIND       PRES   REMARKS
MANKATO        CLOUDY    53  43  68 NW22G30   29.52R
NEW ULM        PTCLDY    52  39  62 NW24G32   29.54R
ST JAMES       PTCLDY    54  43  66 NW30G38   29.56R
FAIRMONT       CLOUDY    56  43  61 NW23G38   29.54R
GLENCOE        CLOUDY    51  42  69 NW15G23   29.51R
FARIBAULT      DRIZZLE   54  46  76 W13G18    29.48R
OWATONNA       LGT RAIN  54  46  76 W9G22     29.47R
WASECA         RAIN      52  45  76 NW20G26   29.51R
ALBERT LEA     LGT RAIN  59  37  44 NW9G22    29.47R
$$
MNZ078>079-086>088-094>096-242300-
   Southeast Minnesota

CITY           SKY/WX    TMP DP  RH WIND       PRES   REMARKS
ROCHESTER      CLOUDY    55  41  59 NW8       29.46R
RED WING       RAIN      54  43  66 W3        29.42R
STANTON        DRIZZLE   54  46  75 W16       29.44R
DODGE CENTER   DRIZZLE   57  41  54 NW13      29.47R
WINONA         CLOUDY    55  39  54 CALM      29.42R
PRESTON        CLOUDY    57  40  52 NW8       29.45R
$$
ABBREVIATIONS USED IN REMARKS
   TC - TEMPERATURES IN CELSIUS
  WCI - WIND CHILL INDEX
   HX - HEAT INDEX
  VSB - VISIBILITY
$$



USA.gov is the U.S. government's official web portal to all federal, state and local government web resources and services.